EZY89TW EGPH-EGGW

Flight info

Callsign EZY89TW
Flight time 0h 52m
Altitude 31000
Route GOSAM P600 FENIK L612 NAVSO DCT AKOMU DCT VAMEB UL612 LISTO
Aircraft A319/M-SDE3FGHIRWY/LB1

Departure

Time 2026-04-25 18:55
Airport Edinburgh Airport (EGPH)

Arrival

Time 2026-04-25 19:48
Airport London Luton Airport (EGGW)
Time Latitude Longitude Altitude Speed Heading
2026-04-25 18:18 55.94839 -3.35863 117 ft 0 kts 208°
2026-04-25 18:42 55.94842 -3.35860 116 ft 2 kts 208°
2026-04-25 18:43 55.94859 -3.35845 116 ft 3 kts 208°
2026-04-25 18:43 55.94876 -3.35827 113 ft 3 kts 211°
2026-04-25 18:43 55.94893 -3.35807 112 ft 3 kts 223°
2026-04-25 18:43 55.94904 -3.35783 116 ft 3 kts 262°
2026-04-25 18:44 55.94905 -3.35767 115 ft 0 kts 298°
2026-04-25 18:46 55.94906 -3.35770 116 ft 0 kts 298°
2026-04-25 18:46 55.94914 -3.35797 114 ft 5 kts 298°
2026-04-25 18:46 55.94943 -3.35852 116 ft 7 kts 330°
2026-04-25 18:47 55.94989 -3.35851 113 ft 7 kts 18°
2026-04-25 18:47 55.95035 -3.35829 114 ft 5 kts 349°
2026-04-25 18:47 55.95056 -3.35869 116 ft 5 kts 297°
2026-04-25 18:47 55.95078 -3.35941 113 ft 8 kts 299°
2026-04-25 18:48 55.95103 -3.36045 114 ft 10 kts 290°
2026-04-25 18:48 55.95125 -3.36165 116 ft 10 kts 289°
2026-04-25 18:48 55.95137 -3.36266 116 ft 7 kts 263°
2026-04-25 18:48 55.95117 -3.36334 116 ft 6 kts 239°
2026-04-25 18:49 55.95099 -3.36389 115 ft 5 kts 239°
2026-04-25 18:49 55.95081 -3.36442 113 ft 5 kts 239°
2026-04-25 18:49 55.95054 -3.36522 113 ft 12 kts 239°
2026-04-25 18:49 55.94993 -3.36697 114 ft 19 kts 238°
2026-04-25 18:50 55.94920 -3.36913 115 ft 21 kts 239°
2026-04-25 18:50 55.94840 -3.37151 115 ft 23 kts 239°
2026-04-25 18:50 55.94752 -3.37409 115 ft 25 kts 239°
2026-04-25 18:50 55.94658 -3.37688 114 ft 27 kts 238°
2026-04-25 18:51 55.94558 -3.37980 113 ft 27 kts 238°
2026-04-25 18:51 55.94490 -3.38181 116 ft 29 kts 239°
2026-04-25 18:51 55.94360 -3.38565 114 ft 26 kts 239°
2026-04-25 18:51 55.94305 -3.38728 114 ft 8 kts 238°
2026-04-25 18:52 55.94286 -3.38781 116 ft 5 kts 238°
2026-04-25 18:52 55.94280 -3.38851 116 ft 7 kts 285°
2026-04-25 18:52 55.94317 -3.38900 115 ft 5 kts 330°
2026-04-25 18:52 55.94359 -3.38943 115 ft 9 kts 329°
2026-04-25 18:53 55.94406 -3.38989 113 ft 3 kts 348°
2026-04-25 18:53 55.94421 -3.38957 114 ft 4 kts 62°
2026-04-25 18:53 55.94423 -3.38952 114 ft 1 kts 61°
2026-04-25 18:53 55.94423 -3.38951 114 ft 0 kts 61°
2026-04-25 18:54 55.94432 -3.38924 114 ft 15 kts 60°
2026-04-25 18:55 55.94636 -3.38324 113 ft 94 kts 58°
2026-04-25 18:55 55.95083 -3.36995 220 ft 143 kts 59°
2026-04-25 18:55 55.95587 -3.35505 972 ft 140 kts 60°
2026-04-25 18:55 55.96156 -3.34032 1520 ft 159 kts 50°
2026-04-25 18:56 55.97036 -3.32597 1956 ft 183 kts 46°
2026-04-25 18:56 55.98042 -3.30976 2409 ft 205 kts 45°
2026-04-25 18:56 55.99128 -3.29245 2884 ft 212 kts 42°
2026-04-25 18:56 56.00458 -3.28105 3271 ft 219 kts
2026-04-25 18:57 56.01940 -3.28581 3659 ft 219 kts 329°
2026-04-25 18:57 56.02996 -3.30462 4036 ft 216 kts 295°
2026-04-25 18:57 56.03281 -3.33040 4422 ft 214 kts 262°
2026-04-25 18:57 56.03055 -3.34816 4708 ft 224 kts 254°
2026-04-25 18:58 56.02486 -3.38620 5478 ft 250 kts 256°
2026-04-25 18:58 56.01598 -3.44844 7232 ft 263 kts 256°
2026-04-25 18:58 56.01144 -3.48050 8113 ft 269 kts 256°
2026-04-25 18:59 56.00212 -3.54627 9965 ft 276 kts 255°
2026-04-25 18:59 55.99221 -3.61609 11031 ft 308 kts 255°
2026-04-25 19:00 55.98133 -3.69218 12469 ft 323 kts 255°
2026-04-25 19:00 55.97573 -3.73132 13258 ft 327 kts 254°
2026-04-25 19:01 55.96434 -3.81053 14826 ft 332 kts 254°
2026-04-25 19:01 55.95853 -3.85064 15509 ft 336 kts 254°
2026-04-25 19:01 55.95261 -3.89123 16188 ft 340 kts 255°
2026-04-25 19:01 55.94662 -3.93227 16879 ft 343 kts 254°
2026-04-25 19:02 55.92960 -4.01202 18271 ft 349 kts 236°
2026-04-25 19:02 55.91392 -4.04512 18883 ft 352 kts 223°
2026-04-25 19:02 55.89427 -4.07148 19469 ft 356 kts 215°
2026-04-25 19:03 55.86003 -4.11322 20463 ft 361 kts 216°
2026-04-25 19:03 55.83198 -4.14697 21259 ft 366 kts 212°
2026-04-25 19:03 55.80811 -4.16353 21826 ft 374 kts 193°
2026-04-25 19:04 55.75626 -4.15116 22927 ft 392 kts 159°
2026-04-25 19:04 55.73158 -4.13156 23487 ft 396 kts 158°
2026-04-25 19:05 55.68067 -4.09035 24439 ft 403 kts 158°
2026-04-25 19:05 55.62961 -4.04927 25168 ft 407 kts 158°
2026-04-25 19:05 55.60381 -4.02864 25223 ft 407 kts 158°
2026-04-25 19:06 55.57800 -4.00811 25277 ft 408 kts 158°
2026-04-25 19:06 55.52592 -3.96683 26242 ft 412 kts 158°
2026-04-25 19:06 55.49972 -3.94610 26702 ft 414 kts 159°
2026-04-25 19:07 55.44683 -3.90437 27577 ft 419 kts 158°
2026-04-25 19:07 55.42017 -3.88332 28007 ft 421 kts 158°
2026-04-25 19:08 55.36632 -3.84098 28837 ft 427 kts 158°
2026-04-25 19:08 55.33914 -3.81971 29264 ft 429 kts 158°
2026-04-25 19:09 55.25679 -3.75526 30492 ft 435 kts 158°
2026-04-25 19:09 55.23843 -3.74094 30729 ft 437 kts 158°
2026-04-25 19:09 55.17331 -3.69025 31220 ft 434 kts 158°
2026-04-25 19:10 55.14629 -3.66922 31237 ft 422 kts 158°
2026-04-25 19:10 55.11911 -3.64815 31238 ft 433 kts 158°
2026-04-25 19:10 55.09139 -3.62669 31237 ft 438 kts 158°
2026-04-25 19:11 55.03576 -3.58375 31234 ft 441 kts 158°
2026-04-25 19:11 54.97964 -3.54048 31233 ft 441 kts 158°
2026-04-25 19:12 54.92349 -3.49737 31232 ft 442 kts 158°
2026-04-25 19:12 54.86715 -3.45430 31232 ft 442 kts 158°
2026-04-25 19:13 54.81082 -3.41131 31233 ft 442 kts 158°
2026-04-25 19:13 54.75445 -3.36838 31225 ft 442 kts 158°
2026-04-25 19:14 54.69813 -3.32558 31213 ft 442 kts 158°
2026-04-25 19:14 54.64169 -3.28296 31209 ft 443 kts 158°
2026-04-25 19:15 54.58515 -3.24045 31212 ft 444 kts 159°
2026-04-25 19:15 54.52856 -3.19797 31209 ft 443 kts 158°
2026-04-25 19:16 54.47236 -3.15592 31209 ft 443 kts 158°
2026-04-25 19:16 54.41583 -3.11370 31207 ft 443 kts 158°
2026-04-25 19:17 54.35922 -3.07163 31206 ft 443 kts 158°
2026-04-25 19:17 54.30259 -3.02960 31212 ft 444 kts 158°
2026-04-25 19:18 54.24591 -2.98771 31216 ft 444 kts 159°
2026-04-25 19:18 54.18916 -2.94616 31210 ft 444 kts 159°
2026-04-25 19:19 54.13228 -2.90449 31206 ft 445 kts 159°
2026-04-25 19:19 54.07530 -2.86277 31205 ft 446 kts 159°
2026-04-25 19:20 54.01850 -2.82147 31215 ft 447 kts 159°
2026-04-25 19:20 53.96131 -2.77997 31218 ft 447 kts 159°
2026-04-25 19:21 53.90404 -2.73857 31214 ft 448 kts 159°
2026-04-25 19:21 53.81801 -2.67645 31218 ft 448 kts 159°
2026-04-25 19:22 53.76055 -2.63511 31219 ft 448 kts 159°
2026-04-25 19:23 53.67442 -2.57338 31211 ft 448 kts 159°
2026-04-25 19:23 53.58809 -2.51178 31215 ft 449 kts 159°
2026-04-25 19:24 53.53073 -2.47116 31219 ft 449 kts 159°
2026-04-25 19:25 53.41519 -2.38956 31207 ft 450 kts 159°
2026-04-25 19:25 53.35749 -2.34885 31207 ft 449 kts 159°
2026-04-25 19:26 53.29983 -2.30833 31205 ft 449 kts 159°
2026-04-25 19:26 53.24258 -2.26831 31206 ft 449 kts 159°
2026-04-25 19:27 53.20402 -2.24145 31200 ft 449 kts 159°
2026-04-25 19:27 53.12885 -2.18131 31198 ft 454 kts 147°
2026-04-25 19:28 53.07782 -2.11902 31204 ft 455 kts 145°
2026-04-25 19:28 53.02665 -2.05685 31209 ft 456 kts 146°
2026-04-25 19:29 52.97541 -1.99485 31212 ft 456 kts 145°
2026-04-25 19:29 52.92410 -1.93287 31208 ft 456 kts 145°
2026-04-25 19:30 52.87281 -1.87087 31212 ft 456 kts 145°
2026-04-25 19:30 52.82202 -1.80965 31214 ft 457 kts 145°
2026-04-25 19:31 52.79626 -1.77877 31041 ft 459 kts 145°
2026-04-25 19:31 52.77016 -1.74758 29866 ft 467 kts 146°
2026-04-25 19:31 52.74359 -1.71749 29438 ft 456 kts 151°
2026-04-25 19:31 52.71589 -1.69252 28640 ft 453 kts 154°
2026-04-25 19:32 52.68818 -1.66855 28073 ft 447 kts 154°
2026-04-25 19:32 52.66069 -1.64499 27464 ft 444 kts 155°
2026-04-25 19:32 52.63340 -1.62174 26942 ft 439 kts 155°
2026-04-25 19:32 52.62460 -1.61425 26776 ft 437 kts 155°
2026-04-25 19:33 52.57981 -1.57606 25935 ft 428 kts 154°
2026-04-25 19:33 52.55381 -1.55385 25451 ft 425 kts 154°
2026-04-25 19:33 52.52769 -1.53155 24969 ft 421 kts 154°
2026-04-25 19:33 52.50174 -1.50942 24484 ft 418 kts 154°
2026-04-25 19:34 52.47597 -1.48747 24048 ft 416 kts 154°
2026-04-25 19:34 52.45041 -1.46570 23548 ft 413 kts 154°
2026-04-25 19:34 52.42495 -1.44405 23002 ft 411 kts 154°
2026-04-25 19:34 52.39957 -1.42252 22481 ft 410 kts 154°
2026-04-25 19:35 52.37435 -1.40114 21959 ft 408 kts 154°
2026-04-25 19:35 52.34919 -1.37986 21442 ft 406 kts 154°
2026-04-25 19:35 52.32416 -1.35871 20932 ft 403 kts 154°
2026-04-25 19:35 52.29931 -1.33774 20442 ft 401 kts 154°
2026-04-25 19:36 52.27488 -1.31636 20127 ft 394 kts 152°
2026-04-25 19:36 52.25134 -1.29447 19813 ft 386 kts 151°
2026-04-25 19:36 52.23603 -1.27982 19538 ft 384 kts 151°
2026-04-25 19:36 52.21318 -1.25768 19108 ft 380 kts 150°
2026-04-25 19:37 52.19054 -1.23583 18676 ft 377 kts 151°
2026-04-25 19:37 52.16798 -1.21436 18093 ft 375 kts 151°
2026-04-25 19:37 52.14506 -1.19280 17063 ft 386 kts 151°
2026-04-25 19:37 52.12156 -1.17081 15910 ft 391 kts 151°
2026-04-25 19:38 52.09805 -1.14883 14950 ft 388 kts 151°
2026-04-25 19:38 52.07476 -1.12698 14067 ft 384 kts 150°
2026-04-25 19:38 52.05188 -1.10551 13102 ft 378 kts 150°
2026-04-25 19:38 52.03083 -1.08023 12149 ft 373 kts 135°
2026-04-25 19:39 52.01513 -1.04738 11234 ft 367 kts 119°
2026-04-25 19:39 52.00572 -1.00948 10336 ft 360 kts 103°
2026-04-25 19:39 52.00305 -0.96964 9550 ft 350 kts 86°
2026-04-25 19:39 52.00559 -0.93182 9300 ft 325 kts 82°
2026-04-25 19:40 52.00817 -0.89678 9160 ft 301 kts 82°
2026-04-25 19:40 52.00864 -0.86375 8784 ft 289 kts 100°
2026-04-25 19:40 52.00105 -0.83417 8232 ft 284 kts 127°
2026-04-25 19:40 51.98644 -0.81324 7633 ft 281 kts 152°
2026-04-25 19:41 51.96890 -0.80132 7291 ft 269 kts 160°
2026-04-25 19:41 51.95184 -0.79148 7068 ft 253 kts 161°
2026-04-25 19:41 51.93538 -0.78220 6671 ft 248 kts 161°
2026-04-25 19:41 51.92461 -0.77619 6433 ft 247 kts 161°
2026-04-25 19:42 51.90362 -0.76457 6330 ft 231 kts 161°
2026-04-25 19:42 51.88848 -0.75628 6134 ft 230 kts 161°
2026-04-25 19:42 51.87331 -0.74801 5831 ft 230 kts 161°
2026-04-25 19:42 51.85817 -0.73984 5531 ft 229 kts 161°
2026-04-25 19:43 51.84305 -0.73176 5237 ft 228 kts 161°
2026-04-25 19:43 51.82885 -0.72088 4922 ft 225 kts 138°
2026-04-25 19:43 51.82044 -0.69993 4469 ft 225 kts 102°
2026-04-25 19:43 51.82088 -0.67567 4185 ft 213 kts 75°
2026-04-25 19:44 51.82487 -0.65309 3909 ft 205 kts 73°
2026-04-25 19:44 51.82876 -0.63132 3656 ft 197 kts 73°
2026-04-25 19:44 51.83245 -0.61039 3399 ft 192 kts 73°
2026-04-25 19:44 51.83603 -0.59003 3132 ft 189 kts 74°
2026-04-25 19:45 51.83959 -0.56972 2879 ft 186 kts 74°
2026-04-25 19:45 51.84307 -0.54984 2633 ft 182 kts 74°
2026-04-25 19:45 51.84643 -0.53064 2396 ft 173 kts 74°
2026-04-25 19:45 51.84963 -0.51232 2167 ft 166 kts 74°
2026-04-25 19:46 51.85272 -0.49459 1952 ft 162 kts 74°
2026-04-25 19:46 51.85569 -0.47753 1734 ft 153 kts 74°
2026-04-25 19:46 51.85850 -0.46143 1534 ft 145 kts 74°
2026-04-25 19:46 51.86118 -0.44601 1346 ft 141 kts 74°
2026-04-25 19:47 51.86383 -0.43076 1160 ft 140 kts 74°
2026-04-25 19:47 51.86646 -0.41561 977 ft 139 kts 74°
2026-04-25 19:47 51.86905 -0.40066 794 ft 139 kts 73°
2026-04-25 19:47 51.87166 -0.38561 593 ft 139 kts 73°
2026-04-25 19:48 51.87414 -0.37131 522 ft 118 kts 75°
2026-04-25 19:48 51.87567 -0.36243 520 ft 47 kts 74°
2026-04-25 19:48 51.87611 -0.35989 516 ft 9 kts 75°
2026-04-25 19:48 51.87648 -0.35917 516 ft 9 kts 15°
2026-04-25 19:49 51.87702 -0.35935 516 ft 9 kts 343°
2026-04-25 19:49 51.87746 -0.35957 516 ft 10 kts 340°
2026-04-25 19:49 51.87784 -0.36072 518 ft 9 kts 259°
2026-04-25 19:49 51.87768 -0.36176 518 ft 11 kts 255°
2026-04-25 19:50 51.87718 -0.36458 519 ft 15 kts 255°
2026-04-25 19:50 51.87690 -0.36622 521 ft 16 kts 254°
2026-04-25 19:50 51.87664 -0.36769 524 ft 12 kts 254°
2026-04-25 19:51 51.87709 -0.36869 520 ft 16 kts 342°
2026-04-25 19:51 51.87839 -0.36939 512 ft 23 kts 341°
2026-04-25 19:51 51.87958 -0.37000 512 ft 11 kts 342°
2026-04-25 19:51 51.88009 -0.37064 512 ft 9 kts 296°
2026-04-25 19:52 51.88062 -0.37155 508 ft 13 kts 339°
2026-04-25 19:52 51.88138 -0.37195 513 ft 10 kts 342°
2026-04-25 19:52 51.88199 -0.37227 517 ft 9 kts 340°
2026-04-25 19:52 51.88232 -0.37306 517 ft 10 kts 266°
2026-04-25 19:53 51.88209 -0.37431 516 ft 12 kts 252°
2026-04-25 19:53 51.88211 -0.37557 516 ft 11 kts 270°
2026-04-25 19:53 51.88188 -0.37643 520 ft 0 kts 240°
2026-04-25 19:54 51.88188 -0.37645 520 ft 1 kts 240°
2026-04-25 19:54 51.88175 -0.37680 523 ft 3 kts 238°
2026-04-25 19:54 51.88166 -0.37704 523 ft 4 kts 239°
2026-04-25 19:54 51.88157 -0.37707 523 ft 2 kts 180°
2026-04-25 19:55 51.88153 -0.37695 523 ft 1 kts 116°
2026-04-25 19:55 51.88144 -0.37660 523 ft 5 kts 111°
2026-04-25 19:55 51.88138 -0.37637 523 ft 1 kts 113°
2026-04-25 19:55 51.88136 -0.37628 523 ft 1 kts 113°
2026-04-25 19:56 51.88133 -0.37618 523 ft 1 kts 112°
2026-04-25 19:56 51.88133 -0.37617 523 ft 0 kts 112°